Date,TemperatureHighF,TemperatureAvgF,TemperatureLowF,DewpointHighF,DewpointAvgF,DewpointLowF,HumidityHigh,HumidityAvg,HumidityLow,PressureMaxIn,PressureMinIn,WindSpeedMaxMPH,WindSpeedAvgMPH,GustSpeedMaxMPH,PrecipitationSumIn
2013-1-1,36,30,25,-100,-100,-100,0,0,100,0.00,40.00,4,2,7,0.00
2013-1-2,37,31,28,-100,-100,-100,0,0,100,0.00,40.00,5,2,16,0.00
2013-1-3,33,30,29,-100,-100,-100,0,0,100,0.00,40.00,14,-68,91,0.00
2013-1-4,34,32,30,-100,-100,-100,0,0,100,0.00,40.00,3,-82,8,0.01
2013-1-5,36,30,28,-100,-100,-100,0,0,100,0.00,40.00,4,-40,8,0.01
2013-1-6,29,27,26,-100,-100,-100,0,0,100,0.00,40.00,2,1,5,0.01
2013-1-7,33,30,28,-100,-100,-100,0,0,100,0.00,40.00,4,-20,7,0.02
2013-1-8,34,31,27,-100,-100,-100,0,0,100,0.00,40.00,4,2,9,0.02
2013-1-9,34,27,21,-100,-100,-100,0,0,100,0.00,40.00,3,-20,9,0.02
2013-1-10,22,20,17,-100,-100,-100,0,0,100,0.00,40.00,8,2,13,0.01
2013-1-11,27,16,13,-100,-100,-100,0,0,100,0.00,40.00,177,11,240,0.00
2013-1-12,19,15,11,-100,-100,-100,0,0,100,0.00,40.00,13,4,23,0.00
2013-1-13,26,18,13,-100,-100,-100,0,0,100,0.00,40.00,69,-82,181,0.00
2013-1-14,28,23,18,-100,-100,-100,0,0,100,0.00,40.00,7,-46,10,0.01
2013-1-15,40,33,24,-100,-100,-100,0,0,100,0.00,40.00,10,7,24,0.01
2013-1-16,46,40,36,-100,-100,-100,0,0,100,0.00,40.00,47,7,240,0.01
2013-1-17,54,45,38,-100,-100,-100,0,0,100,0.00,40.00,6,-40,12,0.00
2013-1-18,46,43,40,-100,-100,-100,0,0,100,0.00,40.00,4,-41,6,0.00
2013-1-19,52,46,42,-100,-100,-100,0,0,100,0.00,40.00,6,-49,73,0.00
2013-1-20,57,49,45,-100,-100,-100,0,0,100,0.00,40.00,20,-40,96,0.01
2013-1-21,53,48,43,-100,-100,-100,0,0,100,0.00,40.00,5,2,7,0.00
2013-1-22,46,44,41,-100,-100,-100,0,0,100,0.00,40.00,4,-43,6,0.00
2013-1-23,44,35,27,-100,-100,-100,0,0,100,0.00,40.00,4,2,8,0.00
2013-1-24,33,29,25,-100,-100,-100,0,0,100,0.00,40.00,4,-41,6,0.00
2013-1-25,35,32,27,-100,-100,-100,0,0,100,0.00,40.00,3,2,7,0.01
2013-1-26,28,26,25,-100,-100,-100,0,0,100,0.00,40.00,2,1,4,0.01
2013-1-27,26,25,24,-100,-100,-100,0,0,100,0.00,40.00,0,0,0,0.01
2013-1-28,27,25,23,-100,-100,-100,0,0,100,0.00,40.00,5,1,11,0.02
2013-1-29,31,28,25,-100,-100,-100,0,0,100,0.00,40.00,3,1,10,0.02
2013-1-30,34,32,29,-100,-100,-100,0,0,100,0.00,40.00,3,2,10,0.01
2013-1-31,34,32,31,-100,-100,-100,0,0,100,0.00,40.00,0,0,0,0.00
2013-2-1,39,33,28,-100,-100,-100,0,0,100,0.00,40.00,4,1,5,0.00
2013-2-2,45,40,36,-100,-100,-100,0,0,100,0.00,40.00,4,-20,5,0.00
2013-2-3,35,30,27,-100,-100,-100,0,0,100,0.00,40.00,4,2,6,0.00
2013-2-4,36,32,28,-100,-100,-100,0,0,100,0.00,40.00,3,1,6,0.00
2013-2-5,33,30,28,-100,-100,-100,0,0,100,0.00,40.00,4,2,8,0.00
2013-2-6,31,28,27,-100,-100,-100,0,0,100,0.00,40.00,1,1,4,0.01
2013-2-7,29,26,21,-100,-100,-100,0,0,100,0.00,40.00,4,-42,7,0.01
2013-2-8,29,23,19,-100,-100,-100,0,0,100,0.00,40.00,8,4,13,0.00
2013-2-9,30,26,22,-100,-100,-100,0,0,100,0.00,40.00,9,5,15,0.00
2013-2-10,37,29,24,-100,-100,-100,0,0,100,0.00,40.00,5,-40,8,0.00
2013-2-11,31,27,24,-100,-100,-100,0,0,100,0.00,40.00,7,3,9,0.00
2013-2-12,33,30,27,-100,-100,-100,0,0,100,0.00,40.00,1,-41,4,0.01
2013-2-13,33,31,28,-100,-100,-100,0,0,100,0.00,40.00,0,0,3,0.01
2013-2-14,35,30,27,-100,-100,-100,0,0,100,0.00,40.00,6,-42,10,0.00
2013-2-15,47,40,34,-100,-100,-100,0,0,100,0.00,40.00,7,-39,48,0.00
2013-2-16,38,31,25,-100,-100,-100,0,0,100,0.00,40.00,4,1,8,0.01
2013-2-17,28,25,22,-100,-100,-100,0,0,100,0.00,40.00,0,0,1,0.00
2013-2-18,26,24,22,-100,-100,-100,0,0,100,0.00,40.00,0,0,0,0.00
2013-2-19,31,25,22,-100,-100,-100,0,0,100,0.00,40.00,5,1,9,0.00
2013-2-20,25,24,21,-100,-100,-100,0,0,100,0.00,40.00,3,-48,5,0.00
2013-2-21,28,26,24,-100,-100,-100,0,0,100,0.00,40.00,1,0,2,0.01
2013-2-22,29,26,21,-100,-100,-100,0,0,100,0.00,40.00,0,-166,0,0.02
2013-2-23,30,24,21,-100,-100,-100,0,0,100,0.00,40.00,0,-178,2,0.01
2013-2-24,31,24,22,-100,-100,-100,0,0,100,0.00,40.00,1,-322,1,0.01
2013-2-25,29,25,21,-100,-100,-100,0,0,100,0.00,40.00,5,-226,12,0.01
2013-2-26,30,24,21,-100,-100,-100,0,0,100,0.00,40.00,2,1,5,0.01
2013-2-27,33,29,26,-100,-100,-100,0,0,100,0.00,40.00,2,1,5,0.00
2013-2-28,36,32,29,-100,-100,-100,0,0,100,0.00,40.00,3,-42,9,0.04
2013-3-1,39,37,35,-100,-100,-100,0,0,100,0.00,40.00,4,2,9,0.01
2013-3-2,37,33,24,-100,-100,-100,0,0,100,0.00,40.00,4,2,8,0.02
2013-3-3,29,24,21,-100,-100,-100,0,0,100,0.00,40.00,43,6,230,0.01
2013-3-4,34,27,21,-100,-100,-100,0,0,100,0.00,40.00,55,6,177,0.00
2013-3-5,28,27,26,-100,-100,-100,0,0,100,0.00,40.00,3,2,7,0.00
2013-3-6,31,28,26,-100,-100,-100,0,0,100,0.00,40.00,3,1,6,0.01
2013-3-7,37,29,26,-100,-100,-100,0,0,100,0.00,40.00,41,3,185,0.01
2013-3-8,39,31,25,-100,-100,-100,0,0,100,0.00,40.00,22,2,180,0.01
2013-3-9,41,32,26,-100,-100,-100,0,0,100,0.00,40.00,4,1,6,0.00
2013-3-10,31,30,29,-100,-100,-100,0,0,100,0.00,40.00,4,-42,6,0.00
2013-3-11,37,32,29,-100,-100,-100,0,0,100,0.00,40.00,3,-48,5,0.00
2013-3-12,36,35,33,-100,-100,-100,0,0,100,0.00,40.00,2,-70,6,0.13
2013-3-13,40,37,35,-100,-100,-100,0,0,100,0.00,40.00,4,-114,6,0.13
2013-3-14,43,39,32,-100,-100,-100,0,0,100,0.00,40.00,22,-62,59,0.01
2013-3-15,38,35,34,-100,-100,-100,0,0,100,0.00,40.00,2,1,6,0.01
2013-3-16,34,30,23,-100,-100,-100,0,0,100,0.00,40.00,7,-75,35,0.01
2013-3-17,27,24,22,-100,-100,-100,0,0,100,0.00,40.00,4,-79,9,0.01
2013-3-18,30,26,22,-100,-100,-100,0,0,100,0.00,40.00,1,-57,3,0.01
2013-3-19,32,28,23,-100,-100,-100,0,0,100,0.00,40.00,2,-64,6,0.01
2013-3-20,34,30,20,-100,-100,-100,0,0,100,0.00,40.00,3,-71,14,0.02
2013-3-21,32,24,20,-100,-100,-100,0,0,100,0.00,40.00,71,-117,237,0.01
2013-3-22,29,21,16,-100,-100,-100,0,0,100,0.00,40.00,5,-82,86,0.01
2013-3-23,37,23,16,-100,-100,-100,0,0,100,0.00,40.00,41,-76,182,0.00
2013-3-24,36,27,21,-100,-100,-100,0,0,100,0.00,40.00,23,-118,204,0.00
2013-3-25,41,32,25,-100,-100,-100,0,0,100,0.00,40.00,33,-91,182,0.01
2013-3-26,42,37,33,-100,-100,-100,0,0,100,0.00,40.00,1,-55,3,0.02
2013-3-27,38,35,34,-100,-100,-100,0,0,100,0.00,40.00,1,-124,3,0.02
2013-3-28,41,36,34,-100,-100,-100,0,0,100,0.00,40.00,84,-70,240,0.01
2013-3-29,47,40,35,-100,-100,-100,0,0,100,0.00,40.00,4,-50,34,0.00
2013-3-30,55,46,37,-100,-100,-100,0,0,100,0.00,40.00,3,-56,5,0.00
2013-3-31,58,49,44,-100,-100,-100,0,0,100,0.00,40.00,4,-78,6,0.00
2013-4-1,52,44,39,-100,-100,-100,0,0,100,0.00,40.00,4,1,5,0.00
2013-4-2,39,38,36,-100,-100,-100,0,0,100,0.00,40.00,1,0,4,0.00
2013-4-3,48,40,33,-100,-100,-100,0,0,100,0.00,40.00,4,-78,5,0.00
2013-4-4,45,41,37,-100,-100,-100,0,0,100,0.00,40.00,3,-131,7,0.03
2013-4-5,38,35,33,-100,-100,-100,0,0,100,0.00,40.00,3,-42,6,0.02
2013-4-6,34,31,29,-100,-100,-100,0,0,100,0.00,40.00,2,-107,6,0.02
2013-4-7,34,30,26,-100,-100,-100,0,0,100,0.00,40.00,1,-160,2,0.02
2013-4-8,36,30,26,-100,-100,-100,0,0,100,0.00,40.00,1,-120,3,0.01
2013-4-9,39,32,27,-100,-100,-100,0,0,100,0.00,40.00,3,-119,6,0.01
2013-4-10,38,34,29,-100,-100,-100,0,0,100,0.00,40.00,5,-54,9,0.01
2013-4-11,34,30,28,-100,-100,-100,0,0,100,0.00,40.00,3,-26,6,0.02
2013-4-12,35,29,26,-100,-100,-100,0,0,100,0.00,40.00,3,-78,6,0.01
2013-4-13,28,25,21,-100,-100,-100,0,0,100,0.00,40.00,6,-44,14,0.01
2013-4-14,34,27,24,-100,-100,-100,0,0,100,0.00,40.00,3,-80,7,0.02
2013-4-15,31,26,22,-100,-100,-100,0,0,100,0.00,40.00,4,-66,8,0.01
2013-4-16,35,28,24,-100,-100,-100,0,0,100,0.00,40.00,5,-69,7,0.01
2013-4-17,38,31,26,-100,-100,-100,0,0,100,0.00,40.00,3,-79,4,0.01
2013-4-18,35,32,29,-100,-100,-100,0,0,100,0.00,40.00,1,-77,3,0.01
2013-4-19,37,34,33,-100,-100,-100,0,0,100,0.00,40.00,2,-80,6,0.01
2013-4-20,35,33,32,-100,-100,-100,0,0,100,0.00,40.00,2,-80,8,0.01
2013-4-21,35,31,28,-100,-100,-100,0,0,100,0.00,40.00,7,-76,12,0.01
2013-4-22,44,33,26,-100,-100,-100,0,0,100,0.00,40.00,5,-78,9,0.01
2013-4-23,42,37,30,-100,-100,-100,0,0,100,0.00,40.00,5,-74,11,0.01
2013-4-24,53,46,38,-100,-100,-100,0,0,100,0.00,40.00,4,2,8,0.00
2013-4-25,53,46,38,-100,-100,-100,0,0,100,0.00,40.00,4,-48,10,0.01
2013-4-26,57,49,41,-100,-100,-100,0,0,100,0.00,40.00,3,-48,11,0.00
2013-4-27,45,39,34,-100,-100,-100,0,0,100,0.00,40.00,3,-70,7,0.00
2013-4-28,38,35,31,-100,-100,-100,0,0,100,0.00,40.00,4,-114,7,0.01
2013-4-29,32,30,24,-100,-100,-100,0,0,100,0.00,40.00,4,-67,11,0.01
2013-4-30,33,27,23,-100,-100,-100,0,0,100,0.00,40.00,6,-212,13,0.00
2013-5-1,49,39,24,-100,-100,-100,0,0,100,0.00,40.00,6,2,9,0.00
2013-5-2,59,48,41,-100,-100,-100,0,0,100,0.00,40.00,5,-30,7,0.01
2013-5-3,59,48,37,-100,-100,-100,0,0,100,0.00,40.00,6,-45,8,0.00
2013-5-4,56,50,44,-100,-100,-100,0,0,100,0.00,40.00,4,-78,10,0.00
2013-5-5,60,52,46,-100,-100,-100,0,0,100,0.00,40.00,3,-119,9,0.00
2013-5-6,65,58,50,-100,-100,-100,0,0,100,0.00,40.00,5,-132,10,0.00
2013-5-7,62,54,47,-100,-100,-100,0,0,100,0.00,40.00,6,-84,8,0.01
2013-5-8,63,53,45,-100,-100,-100,0,0,100,0.00,40.00,6,-52,10,0.00
2013-5-9,68,55,47,-100,-100,-100,0,0,100,0.00,40.00,7,-107,9,0.00
2013-5-10,68,56,53,-100,-100,-100,0,0,100,0.00,40.00,7,-74,10,0.00
2013-5-11,64,54,50,-100,-100,-100,0,0,100,0.00,40.00,3,-152,6,0.01
2013-5-12,51,48,43,-100,-100,-100,0,0,100,0.00,40.00,5,-77,9,0.00
2013-5-13,43,39,32,-100,-100,-100,0,0,100,0.00,40.00,4,-65,8,0.01
2013-5-14,47,37,30,-100,-100,-100,0,0,100,0.00,40.00,4,-60,7,0.01
2013-5-15,44,39,35,-100,-100,-100,0,0,100,0.00,40.00,2,-76,4,1.28
2013-5-16,52,41,35,-100,-100,-100,0,0,100,0.00,40.00,2,-60,5,0.01
2013-5-17,40,37,36,-100,-100,-100,0,0,100,0.00,40.00,2,-117,4,0.01
2013-5-18,39,36,34,-100,-100,-100,0,0,100,0.00,40.00,2,-79,8,0.01
2013-5-19,42,38,36,-100,-100,-100,0,0,100,0.00,40.00,6,-74,12,0.01
2013-5-20,55,47,35,-100,-100,-100,0,0,100,0.00,40.00,6,-106,8,0.01
2013-5-21,43,35,30,-100,-100,-100,0,0,100,0.00,40.00,2,-224,5,0.02
2013-5-22,35,30,27,-100,-100,-100,0,0,100,0.00,40.00,1,-41,2,0.03
2013-5-23,35,32,30,-100,-100,-100,0,0,100,0.00,40.00,1,-78,2,0.02
2013-5-24,38,34,32,-100,-100,-100,0,0,100,0.00,40.00,1,-83,3,0.01
2013-5-25,43,37,33,-100,-100,-100,0,0,100,0.00,40.00,1,-41,4,0.01
2013-5-26,45,41,38,-100,-100,-100,0,0,100,0.00,40.00,30,-37,109,0.01
2013-5-27,41,38,36,-100,-100,-100,0,0,100,0.00,40.00,4,-72,6,0.02
2013-5-28,43,38,36,-100,-100,-100,0,0,100,0.00,40.00,2,-39,14,0.02
2013-5-29,39,36,33,-100,-100,-100,0,0,100,0.00,40.00,3,-37,5,0.03
2013-5-30,40,35,33,-100,-100,-100,0,0,100,0.00,40.00,1,-39,4,0.03
2013-5-31,49,40,34,-100,-100,-100,0,0,100,0.00,40.00,2,-40,4,0.02
2013-6-1,54,46,40,-100,-100,-100,0,0,100,0.00,40.00,4,2,6,0.00
2013-6-2,44,41,39,-100,-100,-100,0,0,100,0.00,40.00,8,-18,35,0.00
2013-6-3,56,45,37,-100,-100,-100,0,0,100,0.00,40.00,4,-38,8,0.01
2013-6-4,63,54,42,-100,-100,-100,0,0,100,0.00,40.00,8,-41,12,0.00
2013-6-5,64,55,49,-100,-100,-100,0,0,100,0.00,40.00,5,-38,6,0.00
2013-6-6,66,54,46,-100,-100,-100,0,0,100,0.00,40.00,7,-39,8,0.00
2013-6-7,54,47,42,-100,-100,-100,0,0,100,0.00,40.00,5,-43,7,0.00
2013-6-8,59,48,40,-100,-100,-100,0,0,100,0.00,40.00,4,-40,8,0.00
2013-6-9,51,44,39,-100,-100,-100,0,0,100,0.00,40.00,4,-41,8,0.00
2013-6-10,55,43,36,-100,-100,-100,0,0,100,0.00,40.00,5,-39,9,0.00
2013-6-11,40,37,34,-100,-100,-100,0,0,100,0.00,40.00,1,-74,3,0.02
2013-6-12,40,36,33,-100,-100,-100,0,0,100,0.00,40.00,3,-23,5,0.04
2013-6-13,42,38,35,-100,-100,-100,0,0,100,0.00,40.00,22,-93,92,0.03
2013-6-14,51,43,37,-100,-100,-100,0,0,100,0.00,40.00,5,-70,94,0.01
2013-6-15,63,54,46,-100,-100,-100,0,0,100,0.00,40.00,4,-112,10,0.01
2013-6-16,63,54,47,-100,-100,-100,0,0,100,0.00,40.00,3,-157,4,0.00
2013-6-17,55,49,44,-100,-100,-100,0,0,100,0.00,40.00,2,-25,4,0.01
2013-6-18,54,45,40,-100,-100,-100,0,0,100,0.00,40.00,3,-70,6,0.01
2013-6-19,44,40,38,-100,-100,-100,0,0,100,0.00,40.00,1,-78,7,0.01
2013-6-20,39,38,37,-100,-100,-100,0,0,100,0.00,40.00,1,-136,3,0.01
2013-6-22,59,54,43,-100,-100,-100,0,0,100,0.00,40.00,5,1,37,0.00
2013-6-23,50,49,47,-100,-100,-100,0,0,100,0.00,40.00,3,2,5,0.01
2013-6-24,47,44,43,-100,-100,-100,0,0,100,0.00,40.00,83,12,173,0.01
2013-6-25,47,43,43,-100,-100,-100,0,0,100,0.00,40.00,14,-108,46,0.02
2013-6-26,50,46,42,-100,-100,-100,0,0,100,0.00,40.00,28,-58,133,0.02
2013-6-27,52,49,45,-100,-100,-100,0,0,100,0.00,40.00,3,-81,16,0.01
2013-6-28,71,62,53,-100,-100,-100,0,0,100,0.00,40.00,4,-137,6,0.01
2013-6-29,67,60,53,-100,-100,-100,0,0,100,0.00,40.00,6,-67,9,0.00
2013-6-30,76,68,57,-100,-100,-100,0,0,100,0.00,40.00,2,-82,5,0.00
2013-7-1,82,68,61,-100,-100,-100,0,0,100,0.00,40.00,3,-48,6,0.00
2013-7-2,75,64,55,-100,-100,-100,0,0,100,0.00,40.00,4,-26,6,0.00
2013-7-3,66,56,48,-100,-100,-100,0,0,100,0.00,40.00,3,-31,5,0.00
2013-7-4,55,49,43,-100,-100,-100,0,0,100,0.00,40.00,5,-23,12,0.00
2013-7-5,56,48,43,-100,-100,-100,0,0,100,0.00,40.00,6,-160,14,0.00
2013-7-6,66,51,42,-100,-100,-100,0,0,100,0.00,40.00,8,-99,10,0.01
2013-7-7,66,56,47,-100,-100,-100,0,0,100,0.00,40.00,7,-20,9,0.00
2013-7-8,63,50,44,-100,-100,-100,0,0,100,0.00,40.00,5,-100,9,0.00
2013-7-9,72,61,51,-100,-100,-100,0,0,100,0.00,40.00,7,-112,10,0.00
2013-7-10,64,53,46,-100,-100,-100,0,0,100,0.00,40.00,3,-127,7,0.00
2013-7-11,57,45,37,-100,-100,-100,0,0,100,0.00,40.00,3,-61,6,0.00
2013-7-12,50,43,40,-100,-100,-100,0,0,100,0.00,40.00,4,-35,8,0.01
2013-7-13,63,50,37,-100,-100,-100,0,0,100,0.00,40.00,5,-341,10,0.00
2013-7-14,67,57,49,-100,-100,-100,0,0,100,0.00,40.00,5,-117,6,0.01
2013-7-15,69,54,45,-100,-100,-100,0,0,100,0.00,40.00,5,-135,10,0.00
2013-7-16,72,61,55,-100,-100,-100,0,0,100,0.00,40.00,6,-61,11,0.01
2013-7-17,64,56,50,-100,-100,-100,0,0,100,0.00,40.00,4,-84,12,0.00
2013-7-18,71,61,46,-100,-100,-100,0,0,100,0.00,40.00,7,-104,9,0.00
2013-7-19,75,60,52,-100,-100,-100,0,0,100,0.00,40.00,7,-82,9,0.01
2013-7-20,70,58,50,-100,-100,-100,0,0,100,0.00,40.00,7,-126,8,0.00
2013-7-21,70,57,47,-100,-100,-100,0,0,100,0.00,40.00,5,-148,7,0.00
2013-7-22,71,56,48,-100,-100,-100,0,0,100,0.00,40.00,5,-56,8,0.00
2013-7-23,76,62,50,-100,-100,-100,0,0,100,0.00,40.00,7,-80,8,0.00
2013-7-24,72,60,51,-100,-100,-100,0,0,100,0.00,40.00,5,-64,8,0.00
2013-7-25,74,61,52,-100,-100,-100,0,0,100,0.00,40.00,7,-101,8,0.01
2013-7-26,73,60,52,-100,-100,-100,0,0,100,0.00,40.00,6,-61,7,0.01
2013-7-27,64,52,44,-100,-100,-100,0,0,100,0.00,40.00,2,-99,4,0.00
2013-7-28,61,50,42,-100,-100,-100,0,0,100,0.00,40.00,4,-34,6,0.00
2013-7-29,65,55,44,-100,-100,-100,0,0,100,0.00,40.00,7,-85,9,0.00
2013-7-30,67,56,48,-100,-100,-100,0,0,100,0.00,40.00,7,-72,8,0.01
2013-7-31,66,60,56,-100,-100,-100,0,0,100,0.00,40.00,5,-107,7,0.01
2013-8-1,56,48,45,-100,-100,-100,0,0,100,0.00,40.00,3,-42,5,0.00
2013-8-2,47,45,44,-100,-100,-100,0,0,100,0.00,40.00,2,-127,4,0.01
2013-8-3,62,52,46,-100,-100,-100,0,0,100,0.00,40.00,4,-55,7,0.01
2013-8-4,68,60,54,-100,-100,-100,0,0,100,0.00,40.00,5,-98,8,0.00
2013-8-5,70,61,55,-100,-100,-100,0,0,100,0.00,40.00,6,-190,9,0.00
2013-8-6,72,63,55,-100,-100,-100,0,0,100,0.00,40.00,6,-55,7,0.01
2013-8-7,67,59,53,-100,-100,-100,0,0,100,0.00,40.00,5,-59,11,0.00
2013-8-8,69,56,50,-100,-100,-100,0,0,100,0.00,40.00,6,4,10,0.01
2013-8-9,74,60,53,-100,-100,-100,0,0,100,0.00,40.00,8,-97,9,0.01
2013-8-10,65,57,51,-100,-100,-100,0,0,100,0.00,40.00,6,-63,10,0.01
2013-8-11,56,52,50,-100,-100,-100,0,0,100,0.00,40.00,3,-133,7,0.01
2013-8-12,65,56,48,-100,-100,-100,0,0,100,0.00,40.00,3,-60,4,0.01
2013-8-13,69,58,47,-100,-100,-100,0,0,100,0.00,40.00,2,-293,4,0.00
2013-8-14,66,60,53,-100,-100,-100,0,0,100,0.00,40.00,3,-113,6,0.01
2013-8-15,58,53,52,-100,-100,-100,0,0,100,0.00,40.00,3,-102,5,0.00
2013-8-16,66,55,50,-100,-100,-100,0,0,100,0.00,40.00,3,-110,4,0.01
2013-8-17,57,52,51,-100,-100,-100,0,0,100,0.00,40.00,3,-370,6,1.75
2013-8-18,65,55,48,-100,-100,-100,0,0,100,0.00,40.00,2,1,4,1.75
2013-8-19,57,49,48,-100,-100,-100,0,0,100,0.00,40.00,3,1,8,0.01
2013-8-20,63,51,45,-100,-100,-100,0,0,100,0.00,40.00,7,-109,9,0.01
2013-8-21,71,61,53,-100,-100,-100,0,0,100,0.00,40.00,6,2,8,0.71
2013-8-22,70,62,55,-100,-100,-100,0,0,100,0.00,40.00,2,1,6,0.01
2013-8-23,59,53,48,-100,-100,-100,0,0,100,0.00,40.00,2,1,4,0.00
2013-8-24,59,48,45,-100,-100,-100,0,0,100,0.00,40.00,2,1,6,0.00
2013-8-25,58,50,45,-100,-100,-100,0,0,100,0.00,40.00,2,-62,4,0.00
2013-8-26,54,48,46,-100,-100,-100,0,0,100,0.00,40.00,3,-57,5,0.00
2013-8-27,53,49,47,-100,-100,-100,0,0,100,0.00,40.00,2,2,4,0.01
2013-8-28,60,56,53,-100,-100,-100,0,0,100,0.00,40.00,2,1,4,0.01
2013-8-29,53,52,50,-100,-100,-100,0,0,100,0.00,40.00,4,-164,6,0.02
2013-8-30,58,51,47,-100,-100,-100,0,0,100,0.00,40.00,4,2,6,0.01
2013-8-31,69,57,50,-100,-100,-100,0,0,100,0.00,40.00,4,2,5,0.00
2013-9-1,70,62,53,-100,-100,-100,0,0,100,0.00,40.00,3,1,6,0.00
2013-9-2,64,54,49,-100,-100,-100,0,0,100,0.00,40.00,5,2,9,0.00
2013-9-3,61,52,49,-100,-100,-100,0,0,100,0.00,40.00,5,-130,8,0.00
2013-9-4,62,54,50,-100,-100,-100,0,0,100,0.00,40.00,6,-49,9,0.00
2013-9-5,59,51,45,-100,-100,-100,0,0,100,0.00,40.00,8,5,12,0.04
2013-9-6,48,47,45,-100,-100,-100,0,0,100,0.00,40.00,1,0,5,0.07
2013-9-7,54,48,46,-100,-100,-100,0,0,100,0.00,40.00,4,2,7,0.01
2013-9-8,64,54,46,-100,-100,-100,0,0,100,0.00,40.00,5,-52,9,0.01
2013-9-9,66,56,50,-100,-100,-100,0,0,100,0.00,40.00,5,-40,8,0.00
2013-9-10,71,63,57,-100,-100,-100,0,0,100,0.00,40.00,5,2,7,0.01
2013-9-11,76,68,60,-100,-100,-100,0,0,100,0.00,40.00,2,-132,4,0.00
2013-9-12,78,69,65,-100,-100,-100,0,0,100,0.00,40.00,1,0,4,0.00
2013-9-13,69,60,55,-100,-100,-100,0,0,100,0.00,40.00,5,-102,7,0.00
2013-9-14,77,67,63,-100,-100,-100,0,0,100,0.00,40.00,6,2,7,0.01
2013-9-15,72,60,49,-100,-100,-100,0,0,100,0.00,40.00,2,-117,7,0.00
2013-9-16,49,47,45,-100,-100,-100,0,0,100,0.00,40.00,1,-52,4,0.05
2013-9-17,45,42,40,-100,-100,-100,0,0,100,0.00,40.00,3,0,9,0.02
2013-9-18,41,40,38,-100,-100,-100,0,0,100,0.00,40.00,4,-132,6,0.01
2013-9-19,58,50,44,-100,-100,-100,0,0,100,0.00,40.00,4,-148,5,0.01
2013-9-20,60,53,45,-100,-100,-100,0,0,100,0.00,40.00,3,2,5,0.01
2013-9-21,51,43,42,-100,-100,-100,0,0,100,0.00,40.00,3,1,7,0.00
2013-9-22,42,39,37,-100,-100,-100,0,0,100,0.00,40.00,4,-52,8,0.02
2013-9-23,40,38,37,-100,-100,-100,0,0,100,0.00,40.00,3,-54,6,0.01
2013-9-24,38,36,34,-100,-100,-100,0,0,100,0.00,40.00,1,0,4,0.01
2013-9-25,43,37,34,-100,-100,-100,0,0,100,0.00,40.00,4,2,9,0.02
2013-9-26,44,38,34,-100,-100,-100,0,0,100,0.00,40.00,4,-175,9,0.01
2013-9-27,40,37,35,-100,-100,-100,0,0,100,0.00,40.00,2,-58,4,0.01
2013-9-28,45,40,35,-100,-100,-100,0,0,100,0.00,40.00,4,3,8,0.10
2013-9-30,34,33,32,-100,-100,-100,0,0,100,0.00,40.00,3,-175,7,0.07
2013-10-1,33,33,33,-100,-100,-100,0,0,100,0.00,40.00,1,0,3,0.00
2013-10-2,37,34,32,-100,-100,-100,0,0,100,0.00,40.00,1,0,3,0.01
2013-10-3,37,34,31,-100,-100,-100,0,0,100,0.00,40.00,4,2,7,0.01
2013-10-4,48,42,36,-100,-100,-100,0,0,100,0.00,40.00,3,-276,4,0.01
2013-10-5,60,52,43,-100,-100,-100,0,0,100,0.00,40.00,3,-87,5,0.01
2013-10-6,59,52,45,-100,-100,-100,0,0,100,0.00,40.00,5,-55,7,0.00
2013-10-7,45,38,34,-100,-100,-100,0,0,100,0.00,40.00,4,-51,9,0.00
2013-10-8,35,33,30,-100,-100,-100,0,0,100,0.00,40.00,5,-67,11,0.01
2013-10-9,44,36,30,-100,-100,-100,0,0,100,0.00,40.00,5,-113,8,0.00
2013-10-10,39,35,32,-100,-100,-100,0,0,100,0.00,40.00,2,-90,7,0.00
2013-10-11,38,35,33,-100,-100,-100,0,0,100,0.00,40.00,1,0,4,0.01
2013-10-12,38,34,32,-100,-100,-100,0,0,100,0.00,40.00,3,1,6,0.01
2013-10-13,43,36,32,-100,-100,-100,0,0,100,0.00,40.00,4,-85,6,0.00
2013-10-21,58,56,54,-100,-100,-100,0,0,100,0.00,40.00,3,2,7,0.00
2013-10-22,66,59,55,-100,-100,-100,0,0,100,0.00,40.00,2,1,3,0.00
2013-10-23,60,55,51,-100,-100,-100,0,0,100,0.00,40.00,3,2,4,0.00
2013-10-24,60,56,50,-100,-100,-100,0,0,100,0.00,40.00,2,2,3,0.00
2013-10-25,51,48,45,-100,-100,-100,0,0,100,0.00,40.00,3,-76,4,0.00
2013-10-26,54,46,45,-100,-100,-100,0,0,100,0.00,40.00,5,2,7,0.01
2013-10-27,33,33,33,-100,-100,-100,0,0,100,0.00,40.00,4,3,7,0.00
2013-11-2,39,30,27,-100,-100,-100,0,0,100,0.00,40.00,4,-103,11,0.02
2013-11-3,29,27,27,-100,-100,-100,0,0,100,0.00,40.00,2,-110,7,0.01
2013-11-4,34,28,23,-100,-100,-100,0,0,100,0.00,40.00,3,-189,6,0.01
2013-11-5,34,33,31,-100,-100,-100,0,0,100,0.00,40.00,3,1,4,0.01
2013-11-6,37,35,31,-100,-100,-100,0,0,100,0.00,40.00,3,2,5,0.02
2013-11-7,39,36,33,-100,-100,-100,0,0,100,0.00,40.00,4,2,7,0.00
2013-11-8,33,31,30,-100,-100,-100,0,0,100,0.00,40.00,0,-222,0,0.03
2013-11-12,42,39,37,-100,-100,-100,0,0,100,0.00,40.00,3,-70,5,0.01
2013-11-13,36,35,35,-100,-100,-100,0,0,100,0.00,40.00,0,-200,3,0.00
2013-11-14,32,31,30,-100,-100,-100,0,0,100,0.00,40.00,0,0,3,0.00
2013-11-15,29,28,27,-100,-100,-100,0,0,100,0.00,40.00,0,0,2,0.02
2013-11-16,27,25,24,-100,-100,-100,0,0,100,0.00,40.00,6,2,18,0.01
2013-11-17,33,32,32,-100,-100,-100,0,0,100,0.00,40.00,3,2,7,0.00
2013-11-18,34,34,33,-100,-100,-100,0,0,100,0.00,40.00,3,2,6,0.03
2013-11-19,37,29,24,-100,-100,-100,0,0,100,0.00,40.00,3,-71,7,0.03
2013-11-20,24,20,17,-100,-100,-100,0,0,100,0.00,40.00,4,2,6,0.00
2013-11-21,34,29,22,-100,-100,-100,0,0,100,0.00,40.00,2,-110,4,0.01
2013-11-22,39,38,36,-100,-100,-100,0,0,100,0.00,40.00,4,3,6,0.01
2013-11-23,48,44,40,-100,-100,-100,0,0,100,0.00,40.00,3,2,5,0.01
2013-11-24,54,50,46,-100,-100,-100,0,0,100,0.00,40.00,3,-70,5,0.00
2013-11-25,48,45,43,-100,-100,-100,0,0,100,0.00,40.00,4,3,5,0.00
2013-11-26,46,42,39,-100,-100,-100,0,0,100,0.00,40.00,5,2,6,0.00
2013-11-27,47,42,40,-100,-100,-100,0,0,100,0.00,40.00,2,-82,4,0.00
2013-11-28,50,42,38,-100,-100,-100,0,0,100,0.00,40.00,3,-56,5,0.00
2013-11-29,37,34,32,-100,-100,-100,0,0,100,0.00,40.00,3,2,5,0.00
2013-11-30,34,31,31,-100,-100,-100,0,0,100,0.00,40.00,3,-78,6,0.00
2013-12-1,37,34,32,-100,-100,-100,0,0,100,0.00,40.00,4,2,9,0.07
2013-12-2,22,21,19,-100,-100,-100,0,0,100,0.00,40.00,0,0,0,0.01
2013-12-3,19,16,15,-100,-100,-100,0,0,100,0.00,40.00,4,2,8,0.00
2013-12-4,21,16,12,-100,-100,-100,0,0,100,0.00,40.00,0,0,4,0.00
2013-12-5,16,12,6,-100,-100,-100,0,0,100,0.00,40.00,2,0,4,0.00
2013-12-6,6,4,2,-100,-100,-100,0,0,100,0.00,40.00,3,3,7,0.00
2013-12-7,14,6,1,-100,-100,-100,0,0,100,0.00,40.00,3,1,5,0.01
2013-12-8,21,14,8,-100,-100,-100,0,0,100,0.00,40.00,7,4,13,0.02
2013-12-9,19,17,12,-100,-100,-100,0,0,100,0.00,40.00,3,1,5,0.01
2013-12-10,24,22,19,-100,-100,-100,0,0,100,0.00,40.00,2,1,5,0.01
2013-12-11,35,30,26,-100,-100,-100,0,0,100,0.00,40.00,3,2,6,0.02
2013-12-12,37,33,29,-100,-100,-100,0,0,100,0.00,40.00,4,-122,6,0.01
2013-12-13,33,32,32,-100,-100,-100,0,0,100,0.00,40.00,0,0,0,0.01
2013-12-14,34,30,33,-100,-100,-100,0,0,100,0.00,40.00,3,2,8,0.00
2013-12-15,34,34,33,-100,-100,-100,0,0,100,0.00,40.00,3,2,6,0.00
2013-12-16,42,38,29,-100,-100,-100,0,0,100,0.00,40.00,4,2,6,0.01
2013-12-17,43,37,30,-100,-100,-100,0,0,100,0.00,40.00,5,-74,8,0.01
2013-12-18,32,28,20,-100,-100,-100,0,0,100,0.00,40.00,8,2,18,0.00
2013-12-19,24,20,17,-100,-100,-100,0,0,100,0.00,40.00,5,3,9,0.00
2013-12-20,28,22,18,-100,-100,-100,0,0,100,0.00,40.00,5,4,9,0.03
2013-12-21,31,29,29,-100,-100,-100,0,0,100,0.00,40.00,2,-76,6,0.02
2013-12-22,33,32,30,-100,-100,-100,0,0,100,0.00,40.00,3,1,5,0.01
2013-12-23,34,31,27,-100,-100,-100,0,0,100,0.00,40.00,10,2,19,0.01
2013-12-24,35,28,24,-100,-100,-100,0,0,100,0.00,40.00,6,2,10,0.01
2013-12-25,40,38,36,-100,-100,-100,0,0,100,0.00,40.00,4,4,7,0.01
2013-12-26,44,40,38,-100,-100,-100,0,0,100,0.00,40.00,5,-64,6,0.00
2013-12-27,45,41,38,-100,-100,-100,0,0,100,0.00,40.00,4,4,7,0.00
2013-12-28,32,26,26,-100,-100,-100,0,0,100,0.00,40.00,5,4,7,0.00
2013-12-29,34,32,31,-100,-100,-100,0,0,100,0.00,40.00,4,3,10,0.01
2013-12-30,42,40,36,-100,-100,-100,0,0,100,0.00,40.00,3,2,5,0.00
2013-12-31,32,30,28,-100,-100,-100,0,0,100,0.00,40.00,2,1,5,0.01
2014-1-1,41,36,32,-100,-100,-100,0,0,100,0.00,40.00,4,2,7,0.01
2014-1-2,41,38,31,-100,-100,-100,0,0,100,0.00,40.00,4,3,8,0.01